Bosa, Italy

6:16 AM CET on November 19, 2019 (GMT +0100)
Bosa

Weather History for 16522 - October, 2019

Change the Weather History Date:

Thursday, October 17, 2019

  Actual Average Record
Temperature  
Mean Temperature 67 °F -  
Max Temperature 72 °F 66 °F - ()
Min Temperature 62 °F 50 °F - ()
Cooling Degree Days 2    
Growing Degree Days 17 (Base 50)    
Moisture  
Dew Point 59 °F    
Average Humidity 71    
Maximum Humidity 84    
Minimum Humidity 55    
Precipitation  
Precipitation 0.00 in - - ()
Sea Level Pressure  
Sea Level Pressure 30.10 in    
Wind  
Wind Speed 6 mph ()    
Max Wind Speed 9 mph    
Max Gust Speed -    
Visibility 12.0 miles    
Events      
T = Trace of Precipitation, MM = Missing Value Source: Averaged Metar Reports

Daily Weather History Graph

Daily Weather History Graph

Search for Another Location

Airport or City:

Astronomy

Oct. 17, 2019 Rise Set
Actual Time 7:39 AM CEST 6:44 PM CEST
Civil Twilight 7:12 AM CEST 7:12 PM CEST
Nautical Twilight 6:40 AM CEST 7:44 PM CEST
Astronomical Twilight 6:09 AM CEST 8:15 PM CEST
Moon 9:04 PM CEST (10/17) 10:55 AM CEST (10/17)
Length of Visible Light 12h 00m
Length of Day
11h 04m
Waning Gibbous, 88% of the Moon is Illuminated
Oct 17
Waning Gibbous
Oct 21
Last Quarter
Oct 28
New
Nov 4
First Quarter
Nov 12
Full

Hourly Weather History & Observations

Time (CEST) Temp. Dew Point Humidity Pressure Visibility Wind Dir Wind Speed Gust Speed Precip Events Conditions
12:00 AM 65 °F 58 °F 73% 30.11 in 12 mi SSE 5.8 mph - -  
1:00 AM 65 °F 60 °F 78% 30.11 in 12 mi South 8.1 mph - -  
2:00 AM 65 °F 60 °F 77% 30.11 in 12 mi South 9.2 mph - -  
5:00 AM 64 °F 60 °F 83% 30.10 in 12 mi SSE 8.1 mph - -  
6:00 AM 63 °F 59 °F 83% 30.10 in 12 mi SSE 8.1 mph - -  
7:00 AM 63 °F 59 °F 84% 30.10 in 12 mi SE 8.1 mph - -  
8:00 AM 62 °F 58 °F 84% 30.10 in 12 mi SE 6.9 mph - -  
9:00 AM 63 °F 58 °F 79% 30.10 in 12 mi SE 6.9 mph - -  
10:00 AM 66 °F 58 °F 70% 30.12 in 12 mi ESE 6.9 mph - -  
11:00 AM 68 °F 59 °F 67% 30.12 in 12 mi ESE 6.9 mph - -  
12:00 PM 69 °F 59 °F 63% 30.12 in 12 mi ESE 5.8 mph - -  
1:00 PM 72 °F 60 °F 56% 30.12 in 12 mi South 5.8 mph - -  
2:00 PM 72 °F 59 °F 55% 30.11 in 12 mi South 5.8 mph - -  
3:00 PM 72 °F 60 °F 56% 30.09 in 12 mi WSW 5.8 mph - -  
4:00 PM 72 °F 59 °F 55% 30.09 in 12 mi WSW 6.9 mph - -  
5:00 PM 72 °F 60 °F 56% 30.09 in 12 mi West 3.5 mph - -  
6:00 PM 71 °F 61 °F 62% 30.09 in 12 mi WNW 3.5 mph - -  
7:00 PM 68 °F 59 °F 67% 30.09 in 12 mi WSW 3.5 mph - -  
8:00 PM 66 °F 59 °F 72% 30.09 in 12 mi WNW 2.3 mph - -  
9:00 PM 65 °F 60 °F 77% 30.09 in 12 mi NNE 5.8 mph - -  
10:00 PM 65 °F 60 °F 79% 30.09 in 12 mi NE 5.8 mph - -  
11:00 PM 64 °F 59 °F 80% 30.10 in 12 mi East 5.8 mph - -